Time,TemperatureF,DewpointF,PressureIn,WindDirection,WindDirectionDegrees,WindSpeedMPH,WindSpeedGustMPH,Humidity,HourlyPrecipIn,Conditions,Clouds,dailyrainin,SoftwareType,DateUTC
2013-03-12 00:02:00,35.0,31.0,-100.00,East,85,3.0,4.0,83,0.00,,,-99.99,,2013-03-12 06:02:00,
2013-03-12 00:12:00,35.0,30.0,-100.00,ENE,75,0.0,4.0,81,0.00,,,-99.99,,2013-03-12 06:12:00,
2013-03-12 00:22:00,35.0,30.0,-100.00,SSE,160,0.0,2.0,81,0.00,,,-99.99,,2013-03-12 06:22:00,
2013-03-12 00:32:00,35.0,30.0,-100.00,SSE,160,0.0,2.0,81,0.00,,,-99.99,,2013-03-12 06:32:00,
2013-03-12 00:42:00,35.0,29.0,-100.00,SE,145,0.0,0.0,80,0.00,,,-99.99,,2013-03-12 06:42:00,
2013-03-12 00:52:00,35.0,29.0,-100.00,East,90,0.0,0.0,80,0.00,,,-99.99,,2013-03-12 06:52:00,
2013-03-12 01:02:00,35.0,30.0,-100.00,North,350,0.0,0.0,81,0.00,,,-99.99,,2013-03-12 07:02:00,
2013-03-12 01:12:00,35.0,30.0,-100.00,NNE,15,0.0,0.0,81,0.00,,,-99.99,,2013-03-12 07:12:00,
2013-03-12 01:22:00,34.0,29.0,-100.00,SE,145,0.0,2.0,82,0.00,,,-99.99,,2013-03-12 07:22:00,
2013-03-12 01:32:00,34.0,30.0,-100.00,North,10,0.0,0.0,83,0.00,,,-99.99,,2013-03-12 07:32:00,
2013-03-12 01:42:00,34.0,30.0,-100.00,NW,315,0.0,4.0,84,0.00,,,-99.99,,2013-03-12 07:42:00,
2013-03-12 01:52:00,34.0,30.0,-100.00,SSW,195,3.0,7.0,85,0.00,,,-99.99,,2013-03-12 07:52:00,
2013-03-12 02:02:00,34.0,30.0,-100.00,SW,235,3.0,7.0,85,0.00,,,-99.99,,2013-03-12 08:02:00,
2013-03-12 02:12:00,35.0,31.0,-100.00,SW,215,7.0,13.0,84,0.00,,,-99.99,,2013-03-12 08:12:00,
2013-03-12 02:22:00,35.0,30.0,-100.00,SSW,210,4.0,9.0,82,0.00,,,-99.99,,2013-03-12 08:22:00,
2013-03-12 02:33:00,36.0,30.0,-100.00,East,85,1.0,9.0,80,0.00,,,-99.99,,2013-03-12 08:33:00,
2013-03-12 02:42:00,35.0,30.0,-100.00,ENE,75,4.0,6.0,79,0.00,,,-99.99,,2013-03-12 08:42:00,
2013-03-12 02:52:00,35.0,29.0,-100.00,ESE,105,4.0,6.0,80,0.00,,,-99.99,,2013-03-12 08:52:00,
2013-03-12 03:03:00,34.0,29.0,-100.00,ESE,105,7.0,9.0,81,0.00,,,-99.99,,2013-03-12 09:03:00,
2013-03-12 03:12:00,34.0,29.0,-100.00,NE,50,2.0,9.0,82,0.00,,,-99.99,,2013-03-12 09:12:00,
2013-03-12 03:22:00,33.0,28.0,-100.00,SSE,155,0.0,6.0,83,0.00,,,-99.99,,2013-03-12 09:22:00,
2013-03-12 03:32:00,32.0,28.0,-100.00,SSE,160,2.0,4.0,84,0.00,,,-99.99,,2013-03-12 09:32:00,
2013-03-12 03:42:00,32.0,28.0,-100.00,East,95,0.0,4.0,85,0.00,,,-99.99,,2013-03-12 09:42:00,
2013-03-12 03:52:00,32.0,28.0,-100.00,SE,125,2.0,5.0,85,0.00,,,-99.99,,2013-03-12 09:52:00,
2013-03-12 04:02:00,33.0,29.0,-100.00,ESE,110,4.0,9.0,86,0.00,,,-99.99,,2013-03-12 10:02:00,
2013-03-12 04:12:00,33.0,29.0,-100.00,ESE,110,4.0,6.0,86,0.00,,,-99.99,,2013-03-12 10:12:00,
2013-03-12 04:22:00,33.0,29.0,-100.00,NE,55,1.0,5.0,86,0.00,,,-99.99,,2013-03-12 10:22:00,
2013-03-12 04:32:00,33.0,29.0,-100.00,East,95,2.0,3.0,86,0.00,,,-99.99,,2013-03-12 10:32:00,
2013-03-12 04:42:00,32.0,29.0,-100.00,ESE,110,0.0,3.0,86,0.00,,,-99.99,,2013-03-12 10:42:00,
2013-03-12 04:52:00,32.0,29.0,-100.00,SSE,150,4.0,6.0,86,0.00,,,-99.99,,2013-03-12 10:52:00,
2013-03-12 05:02:00,32.0,29.0,-100.00,SSE,150,1.0,5.0,86,0.00,,,-99.99,,2013-03-12 11:02:00,
2013-03-12 05:12:00,32.0,29.0,-100.00,ESE,115,2.0,3.0,86,0.00,,,-99.99,,2013-03-12 11:12:00,
2013-03-12 05:22:00,32.0,29.0,-100.00,East,100,2.0,4.0,87,0.00,,,-99.99,,2013-03-12 11:22:00,
2013-03-12 05:32:00,32.0,29.0,-100.00,East,85,3.0,4.0,87,0.00,,,-99.99,,2013-03-12 11:32:00,
2013-03-12 05:42:00,32.0,29.0,-100.00,East,95,0.0,3.0,88,0.00,,,-99.99,,2013-03-12 11:42:00,
2013-03-12 05:52:00,32.0,29.0,-100.00,ESE,105,1.0,2.0,88,0.00,,,-99.99,,2013-03-12 11:52:00,
2013-03-12 06:02:00,32.0,29.0,-100.00,SSE,150,0.0,4.0,88,0.00,,,-99.99,,2013-03-12 12:02:00,
2013-03-12 06:12:00,32.0,29.0,-100.00,NNE,30,0.0,0.0,88,0.00,,,-99.99,,2013-03-12 12:12:00,
2013-03-12 06:22:00,32.0,29.0,-100.00,East,95,0.0,0.0,88,0.00,,,-99.99,,2013-03-12 12:22:00,
2013-03-12 06:32:00,32.0,29.0,-100.00,East,100,0.0,0.0,88,0.00,,,-99.99,,2013-03-12 12:32:00,
2013-03-12 06:42:00,32.0,29.0,-100.00,ESE,105,0.0,0.0,89,0.00,,,-99.99,,2013-03-12 12:42:00,
2013-03-12 06:52:00,32.0,29.0,-100.00,ESE,105,0.0,2.0,89,0.00,,,-99.99,,2013-03-12 12:52:00,
2013-03-12 07:02:00,32.0,29.0,-100.00,ENE,70,0.0,0.0,89,0.00,,,-99.99,,2013-03-12 13:02:00,
2013-03-12 07:12:00,31.0,28.0,-100.00,SSE,150,1.0,2.0,89,0.00,,,-99.99,,2013-03-12 13:12:00,
2013-03-12 07:22:00,30.0,28.0,-100.00,ENE,65,0.0,3.0,89,0.00,,,-99.99,,2013-03-12 13:22:00,
2013-03-12 07:32:00,30.0,27.0,-100.00,SSE,160,0.0,0.0,89,0.00,,,-99.99,,2013-03-12 13:32:00,
2013-03-12 07:42:00,29.0,27.0,-100.00,SSE,165,0.0,0.0,90,0.00,,,-99.99,,2013-03-12 13:42:00,
2013-03-12 07:52:00,28.0,25.0,-100.00,SSE,160,0.0,0.0,90,0.00,,,-99.99,,2013-03-12 13:52:00,
2013-03-12 08:02:00,29.0,26.0,-100.00,SE,140,0.0,0.0,90,0.00,,,-99.99,,2013-03-12 14:02:00,
2013-03-12 08:12:00,29.0,26.0,-100.00,SSE,165,3.0,4.0,91,0.00,,,-99.99,,2013-03-12 14:12:00,
2013-03-12 08:22:00,29.0,27.0,-100.00,SSE,160,4.0,5.0,91,0.00,,,-99.99,,2013-03-12 14:22:00,
2013-03-12 08:32:00,30.0,28.0,-100.00,ESE,120,1.0,4.0,91,0.00,,,-99.99,,2013-03-12 14:32:00,
2013-03-12 08:42:00,30.0,28.0,-100.00,SSE,165,1.0,6.0,91,0.00,,,-99.99,,2013-03-12 14:42:00,
2013-03-12 08:53:00,30.0,28.0,-100.00,SSE,150,3.0,6.0,91,0.00,,,-99.99,,2013-03-12 14:53:00,
2013-03-12 09:02:00,30.0,28.0,-100.00,ESE,120,4.0,7.0,91,0.00,,,-99.99,,2013-03-12 15:02:00,
2013-03-12 09:12:00,31.0,29.0,-100.00,SE,130,2.0,6.0,91,0.00,,,-99.99,,2013-03-12 15:12:00,
2013-03-12 09:22:00,32.0,30.0,-100.00,SSE,165,4.0,5.0,91,0.00,,,-99.99,,2013-03-12 15:22:00,
2013-03-12 09:32:00,33.0,30.0,-100.00,South,175,2.0,6.0,90,0.00,,,-99.99,,2013-03-12 15:32:00,
2013-03-12 09:42:00,35.0,32.0,-100.00,SSE,160,2.0,6.0,88,0.00,,,-99.99,,2013-03-12 15:42:00,
2013-03-12 09:52:00,37.0,33.0,-100.00,SSE,160,4.0,6.0,82,0.00,,,-99.99,,2013-03-12 15:52:00,
2013-03-12 10:02:00,39.0,31.0,-100.00,SE,145,2.0,6.0,74,0.00,,,-99.99,,2013-03-12 16:02:00,
2013-03-12 10:12:00,40.0,30.0,-100.00,ESE,110,4.0,6.0,66,0.00,,,-99.99,,2013-03-12 16:12:00,
2013-03-12 10:22:00,39.0,28.0,-100.00,ENE,70,4.0,6.0,62,0.00,,,-99.99,,2013-03-12 16:22:00,
2013-03-12 10:33:00,40.0,28.0,-100.00,East,95,3.0,6.0,61,0.00,,,-99.99,,2013-03-12 16:33:00,
2013-03-12 10:43:00,42.0,29.0,-100.00,ENE,60,2.0,4.0,58,0.00,,,-99.99,,2013-03-12 16:43:00,
2013-03-12 10:52:00,42.0,27.0,-100.00,East,100,3.0,5.0,53,0.00,,,-99.99,,2013-03-12 16:52:00,
2013-03-12 11:03:00,42.0,25.0,-100.00,WNW,300,2.0,6.0,51,0.00,,,-99.99,,2013-03-12 17:03:00,
2013-03-12 11:13:00,43.0,25.0,-100.00,NW,315,2.0,4.0,47,0.00,,,-99.99,,2013-03-12 17:13:00,
2013-03-12 11:22:00,44.0,24.0,-100.00,WSW,255,1.0,4.0,43,0.00,,,-99.99,,2013-03-12 17:22:00,
2013-03-12 11:33:00,46.0,24.0,-100.00,WNW,300,2.0,4.0,41,0.00,,,-99.99,,2013-03-12 17:33:00,
2013-03-12 11:43:00,47.0,25.0,-100.00,SSE,160,1.0,6.0,40,0.00,,,-99.99,,2013-03-12 17:43:00,
2013-03-12 11:53:00,48.0,24.0,-100.00,NW,310,2.0,6.0,38,0.00,,,-99.99,,2013-03-12 17:53:00,
2013-03-12 12:02:00,46.0,23.0,-100.00,West,270,3.0,7.0,39,0.00,,,-99.99,,2013-03-12 18:02:00,
2013-03-12 12:13:00,48.0,23.0,-100.00,WNW,300,4.0,7.0,37,0.00,,,-99.99,,2013-03-12 18:13:00,
2013-03-12 12:23:00,47.0,22.0,-100.00,WNW,290,4.0,7.0,36,0.00,,,-99.99,,2013-03-12 18:23:00,
2013-03-12 12:33:00,47.0,21.0,-100.00,West,265,4.0,9.0,36,0.00,,,-99.99,,2013-03-12 18:33:00,
2013-03-12 12:42:00,46.0,21.0,-100.00,West,275,6.0,11.0,36,0.00,,,-99.99,,2013-03-12 18:42:00,
2013-03-12 12:53:00,47.0,21.0,-100.00,WNW,290,6.0,11.0,35,0.00,,,-99.99,,2013-03-12 18:53:00,
2013-03-12 13:03:00,47.0,21.0,-100.00,WNW,285,6.0,12.0,34,0.00,,,-99.99,,2013-03-12 19:03:00,
2013-03-12 13:13:00,47.0,21.0,-100.00,West,280,7.0,10.0,34,0.00,,,-99.99,,2013-03-12 19:13:00,
2013-03-12 13:23:00,47.0,21.0,-100.00,West,280,7.0,11.0,34,0.00,,,-99.99,,2013-03-12 19:23:00,
2013-03-12 13:33:00,47.0,21.0,-100.00,WNW,300,9.0,11.0,34,0.00,,,-99.99,,2013-03-12 19:33:00,
2013-03-12 13:43:00,48.0,21.0,-100.00,SSW,195,2.0,10.0,34,0.00,,,-99.99,,2013-03-12 19:43:00,
2013-03-12 13:53:00,47.0,21.0,-100.00,WNW,285,8.0,14.0,34,0.00,,,-99.99,,2013-03-12 19:53:00,
2013-03-12 14:02:00,47.0,21.0,-100.00,West,280,7.0,14.0,35,0.00,,,-99.99,,2013-03-12 20:02:00,
2013-03-12 14:12:00,49.0,22.0,-100.00,West,280,4.0,12.0,34,0.00,,,-99.99,,2013-03-12 20:12:00,
2013-03-12 14:23:00,48.0,21.0,-100.00,West,280,6.0,13.0,34,0.00,,,-99.99,,2013-03-12 20:23:00,
2013-03-12 14:32:00,48.0,21.0,-100.00,WNW,285,6.0,13.0,34,0.00,,,-99.99,,2013-03-12 20:32:00,
2013-03-12 14:42:00,49.0,21.0,-100.00,WNW,285,7.0,12.0,33,0.00,,,-99.99,,2013-03-12 20:42:00,
2013-03-12 14:52:00,49.0,21.0,-100.00,West,280,7.0,12.0,32,0.00,,,-99.99,,2013-03-12 20:52:00,
2013-03-12 15:02:00,49.0,20.0,-100.00,WNW,300,7.0,15.0,31,0.00,,,-99.99,,2013-03-12 21:02:00,
2013-03-12 15:12:00,49.0,20.0,-100.00,WNW,285,12.0,17.0,30,0.00,,,-99.99,,2013-03-12 21:12:00,
2013-03-12 15:22:00,48.0,19.0,-100.00,WNW,290,10.0,18.0,30,0.00,,,-99.99,,2013-03-12 21:22:00,
2013-03-12 15:32:00,48.0,19.0,-100.00,WNW,295,6.0,14.0,30,0.00,,,-99.99,,2013-03-12 21:32:00,
2013-03-12 15:43:00,48.0,19.0,-100.00,West,280,8.0,15.0,30,0.00,,,-99.99,,2013-03-12 21:43:00,
2013-03-12 15:52:00,49.0,19.0,-100.00,WNW,295,5.0,12.0,30,0.00,,,-99.99,,2013-03-12 21:52:00,
2013-03-12 16:02:00,49.0,19.0,-100.00,NW,305,6.0,11.0,30,0.00,,,-99.99,,2013-03-12 22:02:00,
2013-03-12 16:12:00,49.0,19.0,-100.00,WNW,300,9.0,13.0,29,0.00,,,-99.99,,2013-03-12 22:12:00,
2013-03-12 16:22:00,49.0,19.0,-100.00,WNW,285,6.0,12.0,29,0.00,,,-99.99,,2013-03-12 22:22:00,
2013-03-12 16:33:00,50.0,19.0,-100.00,WNW,285,6.0,11.0,29,0.00,,,-99.99,,2013-03-12 22:33:00,
2013-03-12 16:42:00,51.0,20.0,-100.00,North,0,4.0,9.0,29,0.00,,,-99.99,,2013-03-12 22:42:00,
2013-03-12 16:52:00,50.0,19.0,-100.00,WNW,290,7.0,10.0,29,0.00,,,-99.99,,2013-03-12 22:52:00,
2013-03-12 17:02:00,50.0,19.0,-100.00,WNW,290,3.0,8.0,29,0.00,,,-99.99,,2013-03-12 23:02:00,
2013-03-12 17:12:00,51.0,20.0,-100.00,WSW,255,3.0,7.0,29,0.00,,,-99.99,,2013-03-12 23:12:00,
2013-03-12 17:22:00,50.0,19.0,-100.00,West,280,6.0,10.0,29,0.00,,,-99.99,,2013-03-12 23:22:00,
2013-03-12 17:34:00,50.0,19.0,-100.00,NW,315,4.0,9.0,29,0.00,,,-99.99,,2013-03-12 23:34:00,
2013-03-12 17:43:00,49.0,19.0,-100.00,WNW,290,4.0,9.0,29,0.00,,,-99.99,,2013-03-12 23:43:00,
2013-03-12 17:52:00,48.0,19.0,-100.00,WSW,245,2.0,7.0,30,0.00,,,-99.99,,2013-03-12 23:52:00,
2013-03-12 18:02:00,48.0,19.0,-100.00,WSW,245,2.0,7.0,30,0.00,,,-99.99,,2013-03-13 00:02:00,
2013-03-12 18:12:00,48.0,19.0,-100.00,SW,235,3.0,7.0,31,0.00,,,-99.99,,2013-03-13 00:12:00,
2013-03-12 18:23:00,47.0,19.0,-100.00,West,275,4.0,9.0,31,0.00,,,-99.99,,2013-03-13 00:23:00,
2013-03-12 18:33:00,47.0,19.0,-100.00,West,275,4.0,9.0,32,0.00,,,-99.99,,2013-03-13 00:33:00,
2013-03-12 18:42:00,46.0,19.0,-100.00,WNW,295,4.0,8.0,32,0.00,,,-99.99,,2013-03-13 00:42:00,
2013-03-12 18:52:00,46.0,20.0,-100.00,West,265,1.0,8.0,34,0.00,,,-99.99,,2013-03-13 00:52:00,
2013-03-12 19:03:00,46.0,20.0,-100.00,NNW,335,0.0,2.0,34,0.00,,,-99.99,,2013-03-13 01:03:00,
2013-03-12 19:12:00,45.0,20.0,-100.00,West,275,0.0,0.0,36,0.00,,,-99.99,,2013-03-13 01:12:00,
2013-03-12 19:22:00,44.0,20.0,-100.00,South,185,0.0,0.0,38,0.00,,,-99.99,,2013-03-13 01:22:00,
2013-03-12 19:32:00,42.0,20.0,-100.00,SSW,210,0.0,1.0,41,0.00,,,-99.99,,2013-03-13 01:32:00,
2013-03-12 19:42:00,40.0,20.0,-100.00,South,190,0.0,0.0,44,0.00,,,-99.99,,2013-03-13 01:42:00,
2013-03-12 19:52:00,39.0,21.0,-100.00,SSW,205,0.0,0.0,49,0.00,,,-99.99,,2013-03-13 01:52:00,
2013-03-12 20:02:00,36.0,20.0,-100.00,SE,130,0.0,3.0,52,0.00,,,-99.99,,2013-03-13 02:02:00,
2013-03-12 20:12:00,34.0,21.0,-100.00,ESE,120,1.0,2.0,56,0.00,,,-99.99,,2013-03-13 02:12:00,
2013-03-12 20:22:00,35.0,23.0,-100.00,SE,125,2.0,4.0,60,0.00,,,-99.99,,2013-03-13 02:22:00,
2013-03-12 20:32:00,34.0,23.0,-100.00,SE,145,5.0,7.0,63,0.00,,,-99.99,,2013-03-13 02:32:00,
2013-03-12 20:43:00,34.0,24.0,-100.00,SSE,160,4.0,7.0,66,0.00,,,-99.99,,2013-03-13 02:43:00,
2013-03-12 20:52:00,32.0,23.0,-100.00,SE,145,4.0,5.0,69,0.00,,,-99.99,,2013-03-13 02:52:00,
2013-03-12 21:02:00,34.0,25.0,-100.00,East,100,4.0,6.0,71,0.00,,,-99.99,,2013-03-13 03:02:00,
2013-03-12 21:12:00,33.0,25.0,-100.00,SSE,155,5.0,6.0,71,0.00,,,-99.99,,2013-03-13 03:12:00,
2013-03-12 21:22:00,32.0,24.0,-100.00,SE,135,4.0,6.0,71,0.00,,,-99.99,,2013-03-13 03:22:00,
2013-03-12 21:32:00,31.0,24.0,-100.00,ESE,120,3.0,5.0,73,0.00,,,-99.99,,2013-03-13 03:32:00,
2013-03-12 21:42:00,30.0,23.0,-100.00,SE,145,3.0,4.0,74,0.00,,,-99.99,,2013-03-13 03:42:00,
2013-03-12 21:52:00,30.0,24.0,-100.00,SSE,165,2.0,4.0,76,0.00,,,-99.99,,2013-03-13 03:52:00,
2013-03-12 22:03:00,29.0,24.0,-100.00,SSE,150,4.0,6.0,78,0.00,,,-99.99,,2013-03-13 04:03:00,
2013-03-12 22:13:00,29.0,24.0,-100.00,SSE,155,4.0,6.0,79,0.00,,,-99.99,,2013-03-13 04:13:00,
2013-03-12 22:22:00,29.0,24.0,-100.00,SSE,150,5.0,6.0,81,0.00,,,-99.99,,2013-03-13 04:22:00,
2013-03-12 22:32:00,29.0,24.0,-100.00,SSE,155,6.0,7.0,81,0.00,,,-99.99,,2013-03-13 04:32:00,
2013-03-12 22:42:00,29.0,25.0,-100.00,SSE,150,5.0,7.0,82,0.00,,,-99.99,,2013-03-13 04:42:00,
2013-03-12 22:52:00,30.0,25.0,-100.00,SSE,150,4.0,7.0,82,0.00,,,-99.99,,2013-03-13 04:52:00,
2013-03-12 23:02:00,29.0,25.0,-100.00,ESE,105,2.0,8.0,82,0.00,,,-99.99,,2013-03-13 05:02:00,
2013-03-12 23:12:00,28.0,24.0,-100.00,SE,135,3.0,4.0,82,0.00,,,-99.99,,2013-03-13 05:12:00,
2013-03-12 23:22:00,29.0,24.0,-100.00,SE,140,3.0,7.0,82,0.00,,,-99.99,,2013-03-13 05:22:00,
2013-03-12 23:32:00,29.0,24.0,-100.00,SSE,155,6.0,7.0,82,0.00,,,-99.99,,2013-03-13 05:32:00,
2013-03-12 23:42:00,28.0,24.0,-100.00,SE,140,4.0,7.0,82,0.00,,,-99.99,,2013-03-13 05:42:00,
2013-03-12 23:52:00,28.0,23.0,-100.00,SSE,160,7.0,9.0,83,0.00,,,-99.99,,2013-03-13 05:52:00,